COSMOS 2251 DEB, 34760

Orbit data source: Space-Track

COSMOS 2251 DEB, 34760 is space debris in LEO originally from a launch on Wed, 16 Jun 1993 UTC launched from the Plesetsk Missile And Space Complex (PKMTR). The debris from Iridium 33, an American commercial communications satellite, has been tracked extensively since its accidental collision with the defunct Russian satellite Cosmos 2251 in 2009. This event, occurring at high speed in low Earth orbit (LEO), generated thousands of pieces of space debris, significantly increasing the risk of further collisions. The Iridium 33 debris cloud has impacted space traffic management and orbital debris mitigation strategies, making it a subject of ongoing study in space situational awareness.

Loading next visibility...
Identifier
34760, 1993-036AAE
Orbit
LEO
Country
Flag of CISCIS
Related business
Manufacturer
Unknown
Mission
Spacecraft
Bus & Motor
Unknown
Mass
Unknown
Launch date (UTC)
1993-06-16 (32 years ago)
Launch vehicle
Unknown
Launch site
Plesetsk Missile And Space Complex (PKMTR)
Object type
Payload
Rocket body
Debris
Shape & HBR
Unknown
Radar Cross Section
Small (<0.1 m²)

Expand to show TLE details & history
Last TLE update: 1 day ago

TLE from 1 day ago
0 COSMOS 2251 DEB
1 34760U 93036AAE 25259.81505635  .00000915  00000-0  42762-3 0  9996
2 34760  74.0607  97.4438 0097497 172.1962 205.1009 14.19249965854559
Epoch: 2025-09-16T19:33Z
TLE epoch observation values (Epoch: 2025-09-16T19:33:40.868Z)
Latitude
16.15068°
Longitude
172.74288°
Altitude
893.577 km
Speed
7.374 km/s
True Right ascension
06h 48m 39s
True Declination
16° 03' 39"
Sunlit
Object was in daylight at epoch
Visualization orbit readout
Latitude
Unknown
Longitude
Unknown
Altitude
Unknown
Speed
Unknown
Apparent Right ascension
Unknown
Apparent Declination
Unknown
Sunlit
N/A
Visualization observer readout
Local Sidereal Time
22:28:59
Azimuth
Unknown
Elevation
Unknown
Doppler factor
Unknown
Orbital elements
Apogee altitude
895.764 km
Perigee altitude
755.297 km
Semi-major axis
7,203.668 km
Eccentricity
0.00975
Inclination
74.0607°
RAAN
97.4438°
Arg. of periapsis
172.1962°
True anomaly
204.63214°
Mean anomaly
205.1009°
Eccentric anomaly
204.866°
Mean motion
3.54987 °/min
Orbital period
101.41 mins
BSTAR
0.00042762
Loading maneuver chart data...
Computing Atmospheric mass density...

Documentation

Showing up to 5 results
|